CPA525 VHHH-LCLK

Flight info

Callsign CPA525
Flight time N/A
Altitude 36100
Route BEKOL A461 SHL W22 TEPID W24 OSNOV G586 QP B330 ELKAL W179 LEBIV/K0909S1160 W179 RIRKI W232 WFX W179 OMBON Y1 SADAN W186 ISBEB/K0909S1220 W186 KAMUD/K0909F400 L141 TISIB L163 SR N193 OGOLI T898 DARVA/N0496F400 B476 METKA L88 RASAM N199 LUSAL M11 EDATA N161 INDUR UB374 ERZ UW701 GAZ/N0489F410 UB36 TUSYR/N0490F400 B544 ALE DCT LUBAM DCT SALIM DCT BAN R785 NIKAS M978 ALSUS M67 VOLBE
Aircraft A359/H-SDE2E3GHIJ3J4J5LM1ORWXY/LB1D1

Departure

Time 2026-04-30 10:28
Airport Hong Kong International Airport (VHHH)

Arrival

Time N/A
Airport Larnaca International Airport (LCLK)
Time Latitude Longitude Altitude Speed Heading
2026-04-30 10:07 22.31405 113.92349 38 ft 0 kts 25°
2026-04-30 10:18 22.31404 113.92349 38 ft 2 kts 25°
2026-04-30 10:18 22.31381 113.92339 38 ft 4 kts 11°
2026-04-30 10:19 22.31335 113.92338 38 ft 1 kts 358°
2026-04-30 10:19 22.31333 113.92338 38 ft 0 kts 358°
2026-04-30 10:22 22.31334 113.92337 38 ft 0 kts 351°
2026-04-30 10:22 22.31340 113.92330 37 ft 4 kts 320°
2026-04-30 10:22 22.31361 113.92274 38 ft 13 kts 290°
2026-04-30 10:23 22.31401 113.92161 38 ft 17 kts 291°
2026-04-30 10:23 22.31476 113.92077 38 ft 16 kts 336°
2026-04-30 10:23 22.31578 113.92039 38 ft 15 kts 355°
2026-04-30 10:23 22.31653 113.92106 38 ft 16 kts 68°
2026-04-30 10:24 22.31694 113.92240 38 ft 21 kts 69°
2026-04-30 10:24 22.31749 113.92403 38 ft 23 kts 73°
2026-04-30 10:24 22.31796 113.92572 38 ft 24 kts 73°
2026-04-30 10:24 22.31851 113.92726 38 ft 22 kts 72°
2026-04-30 10:25 22.31821 113.92877 38 ft 20 kts 93°
2026-04-30 10:25 22.31866 113.93019 38 ft 20 kts 50°
2026-04-30 10:25 22.31967 113.93123 38 ft 20 kts 42°
2026-04-30 10:25 22.32047 113.93225 38 ft 13 kts 49°
2026-04-30 10:26 22.32055 113.93232 38 ft 0 kts 37°
2026-04-30 10:26 22.32072 113.93242 38 ft 7 kts 25°
2026-04-30 10:26 22.32140 113.93237 41 ft 13 kts 334°
2026-04-30 10:27 22.32168 113.93138 41 ft 16 kts 255°
2026-04-30 10:27 22.32144 113.93062 41 ft 0 kts 251°
2026-04-30 10:27 22.32093 113.92904 41 ft 59 kts 251°
2026-04-30 10:28 22.31872 113.92196 40 ft 138 kts 250°
2026-04-30 10:28 22.31499 113.91050 479 ft 162 kts 252°
2026-04-30 10:28 22.31121 113.89890 1428 ft 165 kts 253°
2026-04-30 10:28 22.30744 113.88718 2375 ft 165 kts 253°
2026-04-30 10:29 22.30354 113.87505 3027 ft 180 kts 253°
2026-04-30 10:29 22.29930 113.86180 3238 ft 199 kts 253°
2026-04-30 10:29 22.29456 113.84699 3418 ft 219 kts 252°
2026-04-30 10:29 22.28932 113.83077 3646 ft 236 kts 252°
2026-04-30 10:30 22.28373 113.81350 3984 ft 249 kts 251°
2026-04-30 10:30 22.27800 113.79580 4607 ft 250 kts 251°
2026-04-30 10:30 22.27225 113.77805 5275 ft 250 kts 251°
2026-04-30 10:30 22.26649 113.76026 5912 ft 252 kts 252°
2026-04-30 10:31 22.25982 113.74274 6551 ft 254 kts 241°
2026-04-30 10:31 22.24801 113.72874 7219 ft 255 kts 217°
2026-04-30 10:31 22.23299 113.71835 7893 ft 257 kts 210°
2026-04-30 10:31 22.21582 113.71255 8510 ft 264 kts 186°
2026-04-30 10:32 22.19759 113.71531 8906 ft 270 kts 163°
2026-04-30 10:32 22.18004 113.72289 8984 ft 272 kts 158°
2026-04-30 10:32 22.16271 113.73124 8989 ft 274 kts 158°
2026-04-30 10:32 22.14526 113.73958 8990 ft 274 kts 159°
2026-04-30 10:33 22.12794 113.74810 8988 ft 275 kts 154°
2026-04-30 10:33 22.11195 113.75994 8992 ft 287 kts 143°
2026-04-30 10:33 22.09635 113.77369 8984 ft 297 kts 142°
2026-04-30 10:33 22.08040 113.78806 8988 ft 300 kts 141°
2026-04-30 10:34 22.06678 113.80506 8988 ft 303 kts 118°
2026-04-30 10:34 22.06036 113.82661 9161 ft 304 kts 102°
2026-04-30 10:34 22.05608 113.84906 9645 ft 308 kts 102°
2026-04-30 10:34 22.05181 113.87173 10274 ft 311 kts 102°
2026-04-30 10:35 22.04734 113.89490 10759 ft 320 kts 102°
2026-04-30 10:35 22.04326 113.91911 11020 ft 337 kts 96°
2026-04-30 10:35 22.04509 113.94484 11223 ft 353 kts 72°
2026-04-30 10:35 22.05429 113.96980 11462 ft 366 kts 64°
2026-04-30 10:36 22.06529 113.99505 11685 ft 379 kts 63°
2026-04-30 10:36 22.07672 114.02125 11916 ft 392 kts 64°
2026-04-30 10:36 22.08838 114.04827 12111 ft 404 kts 64°
2026-04-30 10:36 22.10029 114.07608 12395 ft 411 kts 64°
2026-04-30 10:37 22.11388 114.10321 12806 ft 413 kts 53°
2026-04-30 10:37 22.13357 114.12511 13199 ft 411 kts 34°
2026-04-30 10:37 22.15696 114.14281 13629 ft 412 kts 31°
2026-04-30 10:37 22.18098 114.15994 14054 ft 414 kts 30°
2026-04-30 10:38 22.20510 114.17715 14462 ft 417 kts 30°
2026-04-30 10:38 22.22940 114.19447 14848 ft 420 kts 29°
2026-04-30 10:38 22.25555 114.20813 15248 ft 416 kts 13°
2026-04-30 10:38 22.28380 114.21295 15639 ft 411 kts 358°
2026-04-30 10:39 22.31237 114.21318 16017 ft 411 kts 355°
2026-04-30 10:39 22.34110 114.21278 16404 ft 414 kts 355°
2026-04-30 10:39 22.36025 114.21252 16654 ft 416 kts 355°
2026-04-30 10:39 22.38921 114.21218 17020 ft 418 kts 355°
2026-04-30 10:40 22.41840 114.21172 17387 ft 419 kts 354°
2026-04-30 10:40 22.44696 114.20681 17726 ft 414 kts 339°
2026-04-30 10:40 22.47264 114.19339 18087 ft 409 kts 323°
2026-04-30 10:40 22.49547 114.17506 18399 ft 410 kts 319°
2026-04-30 10:41 22.51785 114.15578 18744 ft 412 kts 318°
2026-04-30 10:41 22.54068 114.13701 19070 ft 416 kts 323°
2026-04-30 10:41 22.56574 114.12096 19425 ft 420 kts 328°
2026-04-30 10:41 22.59186 114.10658 19769 ft 423 kts 331°
2026-04-30 10:42 22.61862 114.09296 20075 ft 426 kts 332°
2026-04-30 10:42 22.64562 114.07961 20398 ft 428 kts 332°
2026-04-30 10:42 22.67279 114.06618 20701 ft 431 kts 332°
2026-04-30 10:42 22.70007 114.05255 21013 ft 433 kts 332°
2026-04-30 10:43 22.72744 114.03870 21316 ft 435 kts 332°
2026-04-30 10:43 22.75489 114.02468 21641 ft 437 kts 331°
2026-04-30 10:43 22.78243 114.01054 21948 ft 439 kts 331°
2026-04-30 10:43 22.81014 113.99625 22258 ft 441 kts 331°
2026-04-30 10:44 22.83792 113.98191 22566 ft 444 kts 331°
2026-04-30 10:44 22.86592 113.96745 22857 ft 446 kts 331°
2026-04-30 10:44 22.89399 113.95295 23150 ft 448 kts 331°
2026-04-30 10:44 22.92223 113.93838 23452 ft 451 kts 331°
2026-04-30 10:45 22.95057 113.92367 23730 ft 453 kts 331°
2026-04-30 10:45 22.97900 113.90885 24022 ft 455 kts 331°
2026-04-30 10:45 23.00717 113.89415 24293 ft 457 kts 331°
2026-04-30 10:45 23.03627 113.87897 24569 ft 459 kts 331°
2026-04-30 10:46 23.06501 113.86363 24889 ft 460 kts 329°
2026-04-30 10:46 23.09172 113.84555 25195 ft 459 kts 321°
2026-04-30 10:46 23.11641 113.82362 25500 ft 459 kts 316°
2026-04-30 10:46 23.14010 113.80035 25841 ft 460 kts 315°
2026-04-30 10:47 23.16336 113.77640 26194 ft 462 kts 314°
2026-04-30 10:47 23.18645 113.75206 26538 ft 463 kts 313°
2026-04-30 10:47 23.20958 113.72752 26893 ft 465 kts 313°
2026-04-30 10:47 23.23281 113.70289 27253 ft 467 kts 313°
2026-04-30 10:48 23.25620 113.67818 27574 ft 470 kts 313°
2026-04-30 10:48 23.27977 113.65337 27896 ft 472 kts 314°
2026-04-30 10:48 23.30349 113.62846 28231 ft 474 kts 314°
2026-04-30 10:48 23.32722 113.60356 28545 ft 476 kts 314°
2026-04-30 10:49 23.35114 113.57847 28836 ft 478 kts 314°
2026-04-30 10:49 23.37480 113.55364 29127 ft 480 kts 314°
2026-04-30 10:49 23.39886 113.52837 29429 ft 481 kts 313°
2026-04-30 10:49 23.42332 113.50266 29693 ft 483 kts 314°
2026-04-30 10:50 23.44756 113.47718 29966 ft 485 kts 313°
2026-04-30 10:50 23.47154 113.45195 30223 ft 486 kts 313°
2026-04-30 10:50 23.49584 113.42638 30570 ft 485 kts 313°
2026-04-30 10:50 23.52008 113.40086 30971 ft 483 kts 313°
2026-04-30 10:51 23.54427 113.37540 31350 ft 482 kts 313°
2026-04-30 10:51 23.56822 113.34995 31710 ft 480 kts 313°
2026-04-30 10:51 23.59198 113.32441 32044 ft 479 kts 312°
2026-04-30 10:51 23.61565 113.29884 32370 ft 478 kts 312°
2026-04-30 10:52 23.63908 113.27328 32696 ft 476 kts 310°
2026-04-30 10:52 23.66023 113.24585 33019 ft 471 kts 303°
2026-04-30 10:52 23.67780 113.21573 33332 ft 468 kts 296°
2026-04-30 10:52 23.69246 113.18408 33629 ft 466 kts 294°
2026-04-30 10:53 23.70606 113.15251 33911 ft 465 kts 292°
2026-04-30 10:53 23.71938 113.12037 34216 ft 463 kts 292°
2026-04-30 10:53 23.73244 113.08832 34512 ft 461 kts 292°
2026-04-30 10:53 23.74695 113.05704 34749 ft 463 kts 298°
2026-04-30 10:54 23.76500 113.02789 34957 ft 465 kts 306°
2026-04-30 10:54 23.78689 113.00169 35205 ft 468 kts 314°
2026-04-30 10:54 23.81230 112.97931 35395 ft 472 kts 322°
2026-04-30 10:54 23.84090 112.96144 35594 ft 477 kts 332°
2026-04-30 10:55 23.87191 112.94825 35806 ft 479 kts 337°
2026-04-30 10:55 23.90370 112.93699 35979 ft 481 kts 339°
2026-04-30 10:55 23.96782 112.91622 36018 ft 486 kts 340°
2026-04-30 10:56 24.03270 112.89528 36017 ft 486 kts 339°
2026-04-30 10:56 24.09733 112.87397 36017 ft 483 kts 339°
2026-04-30 10:57 24.16162 112.85255 36018 ft 483 kts 339°
2026-04-30 10:57 24.22592 112.83118 36017 ft 483 kts 339°
2026-04-30 10:58 24.29020 112.80975 36022 ft 483 kts 339°
2026-04-30 10:58 24.35452 112.78834 36026 ft 483 kts 339°
2026-04-30 10:59 24.41617 112.76077 36029 ft 475 kts 326°
2026-04-30 10:59 24.46689 112.71602 36027 ft 465 kts 308°
2026-04-30 11:00 24.50157 112.65697 36025 ft 459 kts 291°
2026-04-30 11:00 24.51742 112.59008 36028 ft 457 kts 275°
2026-04-30 11:01 24.51614 112.52027 36027 ft 457 kts 269°
2026-04-30 11:01 24.51927 112.45055 36027 ft 458 kts 274°
2026-04-30 11:02 24.52514 112.38080 36026 ft 458 kts 276°